Location: Altmatt
(47.1333°N, 8.7000°E)
Time: 02:01:05
(UTC+00:00)

Cosmos 1934 Rocket - Pass Details

Date: 13 July 2020
Orbit: 939 x 998 km, 83.0° (Epoch: 04 August)

Event Time Altitude Azimuth Distance (km) Brightness Sun altitude
Exits shadow 23:31:25 40° 179° (S) 1,394 4.3 -21.2°
Maximum altitude 23:33:50 83° 97° (E) 989 3.9 -21.2°
Drops below altitude 10° 23:40:10 10° 10° (N) 2,754 7.5 -21.2°
Sets 23:42:43 0° 10° (N) 3,713 8.6 -21.2°
